Location: Syracuse
(43.0480°N, 76.1480°W)
Time: 04:08:32
(UTC-04:00)

Daily predictions for brighter satellites

Satellite Brightness Start Highest point End
(mag) Time Altitude Azimuth Time Altitude Azimuth Time Altitude Azimuth
Cosmos 1869 Rocket 3.7 00:04:37 56° ESE 00:04:57 58° E 00:09:22 10° NNE
ALOS 2 3.1 00:06:36 42° E 00:07:16 46° ENE 00:11:29 10° N
CZ-4C R/B 3.5 00:10:20 52° NE 00:10:20 52° NE 00:13:28 10° N
SL-16 R/B 2.4 00:06:10 10° NNW 00:11:50 65° ENE 00:13:41 42° SE
Cosmos 1869 4.3 00:09:12 10° NNW 00:12:56 36° W 00:13:24 35° WSW
Lacrosse 4 Rocket 2.2 00:09:23 10° NNW 00:13:40 48° ENE 00:14:35 41° E
NOSS 3-1 (A) 4.4 00:09:35 10° WSW 00:15:20 47° NW 00:21:47 10° NNE
Cosmos 1455 4.0 00:18:36 10° NW 00:21:33 22° W 00:21:56 21° W
Cosmos 372 Rocket 4.3 00:22:14 48° SE 00:22:46 49° ESE 00:27:49 10° NNE
Cosmos 2074 Rocket 4.2 00:22:06 43° SE 00:23:54 59° E 00:30:05 10° NNE
Landsat 5 4.0 00:23:40 49° E 00:24:15 53° ENE 00:28:40 10° N
ASTEX 1 3.7 00:19:42 10° NNE 00:24:27 48° E 00:24:59 46° ESE
Meteor 1-26 Rocket 4.1 00:20:23 10° N 00:26:00 83° E 00:27:26 53° SSE
Cosmos 2297 Rocket 2.3 00:25:45 39° SW 00:27:56 74° WNW 00:33:37 10° NNE
ERBS 3.4 00:30:25 41° NE 00:30:25 41° NE 00:32:47 10° NE
Cosmos 1709 Rocket 4.3 00:27:28 33° SW 00:30:05 57° WNW 00:36:06 10° N
H-2A R/B 2.4 00:26:20 10° NNE 00:30:30 71° ESE 00:30:32 71° ESE
CZ-4C R/B 4.3 00:25:22 10° NNW 00:31:23 31° NE 00:37:57 10° E
Cosmos 2221 Rocket 3.9 00:28:25 10° NNW 00:32:54 55° W 00:33:22 52° WSW
COS B Rocket 4.1 00:31:44 10° NNW 00:35:11 40° W 00:35:12 40° W
GEOS 3 Rocket 3.7 00:35:41 53° SSW 00:36:25 59° WSW 00:41:34 10° NW
Cosmos 1703 Rocket 4.1 00:32:31 10° NNW 00:36:41 46° W 00:37:00 45° WSW
Cosmos 2219 Rocket 3.6 00:32:54 10° NW 00:37:14 24° WSW 00:38:24 22° WSW
ATLAS 2AS CENTAUR R/B 3.0 00:32:37 24° SW 00:37:41 80° NW 00:45:51 10° NE
Helios 1B 4.5 00:38:25 73° ESE 00:38:41 77° ENE 00:43:03 10° N
COSMOS 2455 2.8 00:34:34 10° NNW 00:40:37 77° WSW 00:42:07 52° S
CZ-2C R/B 3.4 00:36:48 10° NNE 00:41:34 34° E 00:42:07 33° ESE
Okean 1-7 3.0 00:37:55 10° NNW 00:42:11 65° W 00:42:15 65° WSW
Cosmos 2251 Rocket 4.1 00:39:04 10° N 00:44:15 49° ENE 00:45:50 37° ESE
Cosmos 1603 4.4 00:39:44 10° NNW 00:45:13 48° ENE 00:47:31 31° ESE
Meteor 2-10 Rocket 4.0 00:40:52 10° N 00:46:20 57° ENE 00:47:50 44° SE
MOS 1-B Rocket 4.2 00:47:44 39° SE 00:49:39 58° ENE 00:55:08 10° N
Cosmos 389 Rocket 3.5 00:52:48 10° NNW 00:55:35 40° WNW 00:55:35 40° WNW
Geosat 3.9 00:51:19 10° NNE 00:56:22 77° ESE 00:57:05 64° S
Cosmos 1674 Rocket 4.1 00:52:07 10° N 00:56:24 46° ENE 00:56:48 45° E
Meteor 2-3 Rocket 3.7 00:57:40 52° SSW 00:59:08 81° W 01:04:54 10° N
ATLAS 3B R/B 2.7 00:53:37 10° NW 01:00:31 63° WSW 01:02:13 48° S
Cosmos 2184 Rocket 4.0 00:59:54 47° SSW 01:01:49 76° W 01:08:02 10° N
Helios 1A Rocket 2.8 00:57:52 10° NNE 01:01:59 84° ENE 01:01:59 84° ENE
USA 238 DEB 3.9 00:55:23 10° NNW 01:02:26 72° NE 01:06:14 29° SE
USA 238 3.9 00:55:29 10° NNW 01:02:32 71° NE 01:06:22 29° SE
Cosmos 2237 Rocket 3.7 01:00:03 10° NW 01:04:19 22° W 01:05:04 21° WSW
FALCON 9 R/B 3.7 01:01:07 10° W 01:09:34 30° SW 01:09:34 30° SW
SL-08 ROCKET BODY 4.5 01:08:49 47° SSW 01:10:40 74° W 01:16:52 10° N
Cosmos 1892 2.9 01:11:42 68° N 01:11:42 68° N 01:15:04 10° N
Cosmos 1908 Rocket 4.4 01:12:15 36° E 01:12:20 36° E 01:16:20 10° NNE
NOSS 2-3 (E) 4.0 01:11:18 56° SW 01:12:24 83° NW 01:18:10 10° NE
Cosmos 921 Rocket 3.8 01:14:28 37° E 01:14:28 37° E 01:18:02 10° NNE
Cosmos 44 4.1 01:14:57 40° ESE 01:15:08 40° ESE 01:20:12 10° NE
CZ-4B R/B 3.2 01:17:43 25° WNW 01:17:43 25° WNW 01:19:55 10° NW
Cosmos 2341 Rocket 4.3 01:16:06 43° SSE 01:18:01 61° E 01:24:18 10° NNE
Uosat 12 SS-18 rocket 4.2 01:18:54 66° SE 01:19:07 67° ESE 01:23:37 10° NE
H-2A ROCKET BODY 4.2 00:48:25 10° W 01:21:04 38° SSW 01:23:23 35° S
Cosmos 2084 Rocket 3.9 01:25:05 44° ENE 01:25:05 44° ENE 01:27:57 10° NE
Cosmos 1782 2.8 01:20:13 10° N 01:23:58 77° NNE 01:23:58 77° NNE
PSLV R/B 4.4 01:25:18 49° E 01:25:38 50° ENE 01:29:36 10° N
Sich 1 Rocket 3.5 01:27:48 72° SE 01:28:01 74° E 01:32:32 10° NNE
Cosmos 494 Rocket 4.0 01:23:27 10° NNW 01:28:45 82° ENE 01:29:54 56° SSE
USA 234 3.9 01:23:13 10° ESE 01:29:33 56° NNE 01:35:55 10° NW
Cosmos 1340 Rocket 3.2 01:32:25 52° WNW 01:32:25 52° WNW 01:36:07 10° N
Aureole 2 Rocket 4.2 01:29:40 10° NW 01:31:09 24° NW 01:31:09 24° NW
Cosmos 962 Rocket 4.4 01:32:22 49° S 01:34:06 79° E 01:40:15 10° N
Cosmos 44 Rocket 3.8 01:39:15 41° WSW 01:40:49 60° NW 01:46:02 10° NNE
Cosmos 1825 2.9 01:42:13 44° E 01:42:13 44° E 01:45:39 10° NNE
SL-8 Rocket 4.4 01:40:17 38° SSE 01:42:28 55° E 01:48:38 10° NNE
Cosmos 1733 Rocket 3.8 01:46:04 40° W 01:46:31 41° WNW 01:50:46 10° N
Cosmos 1408 3.1 01:49:45 55° E 01:49:45 55° E 01:53:16 10° NNE
Lacrosse 4 Rocket 3.5 01:48:59 10° WNW 01:50:55 17° W 01:50:55 17° W
Coronas F rocket 3.9 01:53:28 18° NW 01:53:28 18° NW 01:54:35 10° NNW
Cosmos 2263 Rocket 2.9 01:51:58 35° SE 01:53:18 40° ESE 01:58:34 10° NE
SL-16 R/B 3.8 01:51:33 10° WNW 01:55:22 19° W 01:55:32 19° WSW
Meteor 1-27 Rocket 3.7 01:49:53 10° NNW 01:55:46 78° W 01:57:22 49° S
BREEZE-M DEB (TANK) 3.3 01:53:34 10° WNW 01:57:18 35° W 01:57:18 35° W
NOSS 3-4 (A) 3.9 01:57:31 40° SSE 01:59:17 51° ESE 02:05:36 10° NE
NOSS 3-4 (C) 3.9 01:57:37 40° SSE 01:59:23 51° ESE 02:05:41 10° NE
Cosmos 1378 Rocket 3.4 01:55:22 10° NNW 01:59:45 74° W 02:00:01 71° SW
NOSS 3-2 (A) 4.1 01:53:44 10° NW 02:01:11 76° NE 02:09:08 10° SE
Meteor 2-13 Rocket 4.4 02:00:36 46° S 02:02:35 86° E 02:08:46 10° N
Cosmos 1356 Rocket 4.4 02:03:04 34° W 02:03:15 34° WNW 02:06:58 10° N
Okean 3 3.3 01:59:05 10° N 02:03:25 89° WNW 02:03:49 74° S
Cosmos 2366 rocket 4.3 02:01:50 36° SSE 02:04:13 58° E 02:10:16 10° NNE
Cosmos 1862 3.3 02:06:05 71° W 02:06:09 71° W 02:10:10 10° N
Okean 2 Rocket 3.0 02:10:09 63° SSE 02:10:51 81° E 02:15:23 10° N
CZ-2C R/B 3.6 02:11:35 42° SW 02:12:54 50° W 02:18:25 10° NNW
Cosmos 1238 Rocket 3.5 02:09:06 10° NNW 02:12:49 39° W 02:12:49 39° W
Cosmos 1782 Rocket 3.5 02:19:57 59° SW 02:20:31 66° W 02:24:54 10° N
CZ-4C R/B 2.8 02:13:31 10° NW 02:20:38 78° WSW 02:26:09 21° SSE
Cosmos 1943 3.1 02:16:04 10° NNW 02:21:44 71° WSW 02:23:35 43° S
CZ-2C R/B 3.8 02:17:11 10° N 02:21:45 31° WNW 02:23:38 24° WSW
Cosmos 1727 Rocket 4.0 02:17:18 10° N 02:23:35 76° E 02:26:41 31° SSE
Cosmos 1606 4.1 02:25:09 10° NNW 02:28:05 27° W 02:28:05 27° W
Cosmos 864 Rocket 4.4 02:27:04 38° S 02:29:37 86° E 02:35:49 10° N
Landsat 4 3.6 02:33:45 63° SSE 02:34:18 83° ENE 02:38:07 10° NNW
Cosmos 1867 3.5 02:33:47 10° NNW 02:39:19 86° ENE 02:43:22 19° SE
PSLV R/B 3.5 02:35:27 10° N 02:39:40 73° WNW 02:40:32 53° SW
Resurs 1-4 Rocket 4.4 02:37:38 10° NE 02:40:40 15° E 02:43:41 10° SE
CRYOSAT 2 4.3 02:36:04 10° N 02:40:56 85° W 02:42:31 44° S
Cosmos 1975 Rocket 3.7 02:38:43 10° NNW 02:42:47 37° W 02:43:12 36° WSW
USA 161 4.2 02:44:56 11° ESE 02:46:35 16° ENE 02:48:29 10° NNE
BREEZE-M DEB (TANK) 4.0 02:32:54 10° WSW 02:46:35 62° NNW 02:50:25 10° ENE
Cosmos 1242 Rocket 2.3 02:43:06 10° N 02:46:36 85° ENE 02:47:00 68° SSE
Cosmos 1536 Rocket 3.5 02:50:21 10° N 02:54:44 90° NNE 02:56:22 39° S
Cosmos 1624 Rocket 4.0 02:52:41 37° S 02:54:46 81° ESE 03:00:02 10° NNE
IRAS Rocket 4.2 02:51:22 10° NNE 02:56:55 84° ESE 02:59:36 32° SSW
NPP 3.6 02:58:46 10° NNE 03:04:11 89° WNW 03:06:51 31° SSW
Meteor 1-20 Rocket 4.5 03:01:49 25° S 03:05:15 69° E 03:11:02 10° NNE
SL-16 R/B 3.6 03:02:29 10° SE 03:08:20 44° ENE 03:14:10 10° N
ADEOS 3.9 03:03:11 10° NNE 03:08:22 59° E 03:11:28 24° S
Cosmos 2151 Rocket 3.8 03:07:47 37° SW 03:09:13 55° W 03:13:37 10° N
BREEZE-M TANK 1.5 03:07:04 10° WNW 03:10:21 80° SSW 03:12:55 10° ESE
Okean 1 3.6 03:06:26 10° N 03:10:25 64° E 03:12:40 24° SSE
Iridium 4 Rocket 3.5 03:06:10 10° NNW 03:10:38 54° W 03:12:32 33° SSW
Okean 1-7 Rocket 4.2 03:07:23 10° N 03:11:54 56° E 03:15:29 16° SSE
USA 234 3.4 03:06:19 10° SSE 03:12:36 49° SW 03:18:55 10° WNW
Cosmos 1812 2.7 03:08:54 10° N 03:12:49 80° E 03:14:38 30° SSE
Cosmos 1184 Rocket 4.1 03:13:16 28° W 03:13:38 28° WNW 03:16:36 10° NNW
ARIANE 5 R/B 3.5 03:09:56 10° NNE 03:14:36 39° E 03:18:19 15° SSE
Abrixas rocket 2.2 03:15:16 54° SSW 03:15:46 64° SSE 03:19:06 10° ENE
RESURS DK-1 2.6 03:14:33 35° SW 03:16:04 58° WNW 03:20:11 10° NNE
Cosmos 1452 Rocket 4.1 03:12:59 22° S 03:16:08 49° ESE 03:21:12 10° NNE
Cosmos 1825 4.5 03:17:09 12° W 03:17:55 13° WNW 03:19:38 10° NW
ERS-2 2.1 03:14:33 10° N 03:18:15 71° WNW 03:19:28 40° SSW
CBERS-1 4.0 03:17:24 10° N 03:22:32 72° WNW 03:25:21 27° SSW
Okean O Rocket 4.2 03:23:07 10° ENE 03:25:09 13° E 03:27:10 10° ESE
Okean 1 Rocket 3.1 03:23:13 26° S 03:25:38 79° E 03:30:07 10° N
NOSS 3-2 (C) 4.3 03:19:56 10° NW 03:27:02 45° WSW 03:34:28 10° S
CENTAUR R/B 3.5 03:21:34 10° NNW 03:29:19 68° NE 03:37:34 10° SE
CZ-2D R/B 3.2 03:24:18 10° NNE 03:29:26 41° E 03:34:28 10° SSE
Cosmos 1821 Rocket 4.1 03:26:36 19° S 03:31:23 84° E 03:37:50 10° N
Cosmos 2123 Rocket 4.4 03:25:45 10° N 03:32:03 64° E 03:38:18 10° SSE
GP-B 3.2 03:30:20 10° N 03:34:43 60° W 03:37:07 26° SSW
Cosmos 1844 Rocket 3.0 03:31:31 20° S 03:35:26 60° ESE 03:41:02 10° NNE
Cosmos 2263 Rocket 3.3 03:33:39 17° WSW 03:37:17 33° NW 03:42:24 10° N
COSMOS 2406 3.2 03:35:09 10° NNW 03:40:52 64° WSW 03:46:32 10° S
SL-08 R/B 4.2 03:41:41 23° SW 03:43:53 33° W 03:48:21 10° NNW
Cosmos 1190 Rocket 4.4 03:39:00 10° NNW 03:43:57 43° WSW 03:47:22 18° SSW
IRS-1C 4.5 03:44:36 10° N 03:49:46 52° WNW 03:53:23 19° SW
Meteor 2-14 Rocket 4.5 03:46:33 14° S 03:51:52 85° E 03:57:59 10° N
Cosmos 2278 Rocket 3.2 03:46:40 10° S 03:51:53 40° ESE 03:57:09 10° NE
Cosmos 2056 Rocket 4.4 03:48:43 18° WSW 03:52:04 36° WNW 03:56:55 10° N
Meteor 2-21 Rocket 4.4 03:49:46 16° SSW 03:54:47 80° W 04:00:55 10° N
Cosmos 1140 Rocket 3.7 03:50:12 10° NNW 03:55:21 72° ENE 04:00:28 10° SSE
Spot 4 Rocket 4.2 03:50:21 10° N 03:55:26 62° WNW 03:59:14 18° SSW
UNK 3.7 03:52:46 10° SSE 03:57:22 89° E 04:02:03 10° NNW
Cosmos 1602 3.6 03:55:28 18° S 03:58:15 85° W 04:02:08 10° N
NOSS 2-2 (D) 4.3 03:55:43 16° S 03:58:46 45° ESE 04:03:16 10° NE
Tiangong 1 1.9 03:59:17 25° SW 03:59:52 27° SSW 04:02:32 10° SE
Cosmos 1025 Rocket 3.0 03:56:33 10° N 04:00:52 88° E 04:05:10 10° S
Cosmos 407 Rocket 4.0 03:56:58 10° NW 04:01:42 37° WSW 04:05:49 13° SSW
Meteor 2-15 4.4 03:55:51 10° N 04:02:01 82° W 04:08:10 10° S
ATLAS 5 CENTAUR R/B 3.6 03:56:33 10° NNW 04:02:13 46° NE 04:08:16 10° ESE
Cosmos 676 Rocket 4.3 04:02:15 10° NNW 04:07:11 45° WSW 04:12:05 10° S
Cosmos 1536 2.8 04:04:07 13° S 04:07:43 87° E 04:11:49 10° N
Meteor 2-4 Rocket 3.8 04:02:37 10° N 04:08:04 76° E 04:13:25 10° SSE
CZ-4C R/B 4.3 04:04:05 10° WNW 04:08:26 17° WSW 04:11:13 14° SW
Cosmos 2082 Rocket 4.3 04:04:01 10° N 04:09:04 31° NE 04:14:04 10° ESE
SL-27 R/B 3.6 04:08:35 10° NW 04:11:42 27° WSW 04:13:49 16° SSW
NOSS 2-2 (C) 3.8 04:09:51 15° SSW 04:13:12 64° ESE 04:17:56 10° NE
IRS-1D 3.6 04:11:21 10° N 04:16:25 62° WNW 04:20:59 12° SSW
USA 161 3.1 04:16:07 16° WSW 04:16:52 18° W 04:18:56 10° NW
Cosmos 1544 Rocket 3.7 04:13:37 10° S 04:18:02 79° E 04:22:28 10° N
UNKNOWN OBJECT B 2.9 04:14:41 10° NNE 04:18:48 86° ESE 04:22:53 10° SSW
Gbstr 26 Del rocket 2.7 04:16:43 15° SW 04:19:48 69° SE 04:23:31 10° ENE
Resurs 1-4 Rocket 2.2 04:15:44 10° N 04:21:02 71° WNW 04:26:18 10° SSW
OTV 4 2.2 04:22:22 15° SSW 04:22:32 15° SSW 04:24:17 10° SSE
IRS-1C Rocket 4.5 04:19:58 10° NNE 04:25:14 65° ESE 04:30:26 10° S
MOS 1-B 4.5 04:27:53 10° N 04:33:40 67° WNW 04:39:25 10° SSW
Timation 2 Rocket 4.1 04:28:38 10° NNW 04:34:52 81° ENE 04:40:52 10° SSE
BREEZE-M DEB (TANK) 4.0 04:27:49 10° WNW 04:38:19 51° N 04:41:35 10° E
Cosmos 1892 Rocket 3.7 04:34:09 10° NNW 04:38:24 53° W 04:42:37 10° S
NOSS 2-2 (E) 3.8 04:35:27 11° SW 04:39:34 69° NW 04:44:36 10° NNE
EO 1 Del DPAF 4.4 04:37:00 10° SSW 04:40:17 26° W 04:43:35 10° NW
Cosmos 1633 3.2 04:37:21 10° SSW 04:40:46 40° WNW 04:44:13 10° N
Meteor 1-11 Rocket 4.4 04:35:16 10° SW 04:40:51 42° WNW 04:46:30 10° N
Cosmos 2061 Rocket 4.3 04:38:10 10° S 04:44:26 74° E 04:50:50 10° N
SME Rocket 3.8 04:41:31 10° SSW 04:44:51 29° W 04:48:22 10° NW
ASTRO F (AKARI) 4.4 04:43:20 10° S 04:46:39 67° W 04:50:09 10° NNW
Okean-O 4.4 04:42:41 10° NNE 04:46:41 32° E 04:50:40 10° SSE
ADEOS II 4.1 04:44:25 10° NE 04:48:51 27° E 04:53:14 10° SSE
USA 129 2.7 04:49:25 10° SSW 04:51:20 28° W 04:53:14 10° NW
SL-16 R/B 3.3 04:46:33 10° SSW 04:52:03 32° W 04:57:34 10° NNW
Cosmos 1356 4.2 04:49:19 10° SW 04:52:39 38° WNW 04:56:02 10° N
Abrixas rocket 3.5 04:49:51 10° W 04:53:01 37° NNW 04:56:11 10° ENE
ARIANE 5 R/B 3.7 04:49:27 10° N 04:53:33 26° WNW 04:57:39 10° WSW
Cosmos 1400 Rocket 3.4 04:50:19 10° SW 04:53:59 40° WNW 04:57:43 10° N
CZ-2C R/B 3.9 04:50:48 10° S 04:55:27 58° W 05:00:11 10° NNW
